GFSNGP_sfc_rhum_000.txt.gz
RH
72 67 70 68 68 68 75 70 88 72 65 55 66 65 62 62 62 63 67 69 71 72 75 76 75 77 67 69 71 70 62 64 76 74 71 68 64 66 66 62 62 65 67 65
84 75 79 84 74 72 70 67 68 65 60 75 72 71 72 70 67 73 75 69 63 70 73 72 73 78 72 75 78 79 81 84 80 77 76 80 81 81 73 68 63 59 61 65
80 92 95 91 80 69 60 58 62 81 70 78 86 79 76 74 72 76 79 68 69 76 77 76 81 75 82 84 89 80 84 85 90 91 90 86 82 76 64 62 61 60 61 64
98 97 99 64 56 54 61 60 60 77 79 78 79 73 72 68 70 80 74 68 71 79 78 80 79 83 87 90 90 89 89 84 84 87 85 73 63 60 60 58 57 59 65 72
98 98 80 68 59 67 74 70 77 84 82 82 82 86 82 66 72 71 69 73 79 81 82 83 86 88 89 85 87 75 60 60 60 60 57 57 55 58 59 60 63 64 71 81
96 99 93 67 55 59 65 85 76 79 85 90 91 98 80 76 74 61 68 77 77 76 81 86 84 71 56 54 56 58 58 53 51 54 54 55 59 61 60 61 63 82 84 84
100 99 88 64 55 63 81 70 77 78 77 84 95 86 79 80 65 71 77 77 77 78 83 84 63 54 46 51 53 49 52 54 54 57 57 59 58 59 63 71 85 94 94 92
98 99 95 63 61 80 74 80 68 67 82 90 87 87 76 67 71 71 80 79 76 84 84 67 41 40 43 51 48 54 59 60 63 65 62 53 60 64 70 85 95 94 98 95
82 83 67 64 62 65 71 63 74 86 82 85 86 78 77 71 77 81 85 87 84 88 69 63 42 47 53 58 59 64 68 72 73 73 66 61 66 75 78 87 97 95 95 97
82 66 60 60 54 53 63 80 85 88 91 87 85 84 72 72 74 80 86 88 86 78 68 71 54 53 62 63 63 70 74 77 80 81 76 74 76 72 78 96 96 93 97 96
87 74 66 61 62 69 73 81 76 75 78 82 72 62 73 74 75 82 85 86 89 91 93 69 59 62 60 65 69 70 77 79 86 88 81 81 78 78 89 92 94 94 97 97
89 64 72 68 76 69 73 80 82 81 72 55 57 72 69 72 75 78 85 92 87 83 60 56 61 61 65 71 72 77 79 85 96 97 95 84 86 86 73 80 71 70 72 90
76 68 74 80 78 79 78 83 73 64 52 55 71 72 74 77 74 81 78 76 83 61 56 64 65 64 65 80 92 93 94 92 95 93 95 96 96 96 99 89 75 78 74 76
60 75 88 81 82 70 58 54 52 48 56 64 69 71 78 79 78 78 80 73 58 55 58 68 64 62 70 78 93 95 96 95 97 97 96 94 98 98 98 98 99 97 88 78
78 76 78 72 58 49 48 50 59 64 72 78 78 83 82 84 78 72 71 69 66 61 66 70 74 74 86 86 89 93 93 97 97 96 95 97 98 97 98 98 98 100 98 86
67 70 67 65 58 58 56 59 71 77 80 85 87 88 87 76 72 72 81 85 88 86 87 94 97 92 94 89 88 90 92 88 89 96 97 97 97 97 98 98 98 100 100 96
80 86 84 73 66 66 70 75 80 84 88 90 91 93 84 90 90 90 88 95 98 98 98 99 99 87 90 90 86 92 97 96 89 95 99 98 98 98 99 98 100 100 99 98
62 56 59 61 65 77 85 86 90 93 96 96 99 98 93 95 90 92 95 96 96 97 97 96 97 92 96 92 88 96 97 98 97 97 99 98 98 98 98 98 100 100 99 98
58 60 64 64 71 85 90 92 94 97 95 98 99 93 93 97 99 98 97 98 93 99 97 98 91 91 96 96 95 97 99 97 98 98 98 99 99 98 99 100 99 99 99 98
66 67 72 72 78 97 95 95 98 98 98 98 96 98 95 95 100 99 94 91 94 98 97 89 90 94 97 99 98 98 98 98 99 100 99 99 98 100 98 99 99 99 100 99
80 79 84 87 88 94 94 94 98 98 96 94 98 96 91 95 97 96 97 88 91 84 84 88 90 96 99 100 99 98 98 98 98 99 100 97 98 98 99 99 98 98 99 99
84 89 88 89 92 91 93 94 96 98 98 98 98 96 98 97 97 97 99 94 92 88 95 95 97 96 98 98 98 98 98 98 99 99 99 98 97 98 99 98 99 99 99 99
87 88 87 88 84 88 96 95 97 98 98 98 97 97 96 97 98 98 96 93 89 90 95 95 95 92 91 96 97 98 98 98 99 98 98 98 97 97 100 97 98 97 99 99
81 82 82 80 96 98 99 94 94 97 97 98 98 95 97 100 99 99 97 89 90 92 96 95 97 93 89 97 97 98 98 99 100 99 98 97 97 98 98 98 98 97 99 98
82 82 85 90 94 93 95 93 97 98 98 98 99 97 96 97 94 95 93 96 96 93 96 93 95 97 98 97 97 98 98 99 99 98 98 98 98 97 99 98 97 97 98 97
82 81 81 86 84 84 92 99 99 98 99 98 99 98 98 96 94 90 90 97 96 91 95 97 98 99 98 98 98 98 98 98 98 99 98 99 99 98 98 97 97 97 96 97
89 96 93 90 94 96 97 99 99 98 98 99 98 99 98 98 94 89 79 89 94 96 97 97 98 98 98 98 98 98 99 98 97 100 98 98 99 97 96 96 97 96 96 96

GFSNGP_sfc_rhum_006.txt.gz
RH
76 71 75 76 81 82 90 84 90 71 80 67 65 66 79 77 78 77 72 75 78 80 69 68 74 82 86 80 83 92 93 92 90 89 92 95 95 93 90 89 86 87 87 71
91 89 90 94 85 87 87 87 89 84 88 64 65 85 84 79 79 82 84 82 83 73 72 75 82 84 80 81 87 92 92 94 93 90 88 88 90 91 91 90 88 95 86 69
90 92 93 77 68 83 80 74 73 75 58 69 84 82 76 74 88 90 90 74 68 59 60 73 79 84 82 86 92 94 83 66 72 73 79 82 87 93 90 81 72 67 68 74
98 92 96 61 61 55 67 62 59 67 69 79 82 79 77 86 90 90 79 74 66 59 65 79 78 81 88 84 80 71 73 74 74 70 71 69 65 64 66 64 64 68 74 83
98 94 83 68 59 70 72 67 63 77 80 81 73 84 83 90 89 86 82 74 66 74 75 80 84 74 65 66 66 70 81 83 79 68 68 68 68 67 66 67 69 80 81 79
99 98 97 69 60 63 78 89 81 77 68 67 80 95 82 86 83 76 63 64 74 76 79 83 85 77 63 76 69 65 71 66 66 70 74 75 69 68 66 74 77 76 73 78
94 99 91 70 64 65 90 81 72 74 72 82 91 97 92 85 69 54 62 72 74 80 84 85 85 65 62 59 62 62 64 67 70 76 77 69 71 73 77 82 83 92 93 92
98 99 95 67 72 82 74 80 73 75 84 96 93 90 83 73 64 58 72 76 73 81 86 86 80 58 59 71 57 61 67 70 74 80 72 65 77 77 74 83 93 94 97 96
86 87 69 58 70 62 67 79 85 94 91 92 89 84 74 74 64 60 76 74 79 87 90 89 79 58 92 84 65 65 71 73 76 80 74 69 77 79 81 88 97 96 95 93
86 78 80 72 64 74 88 93 90 91 92 87 83 85 79 75 65 62 79 82 84 89 93 92 89 89 73 63 66 69 72 74 79 82 83 78 76 74 83 97 98 96 95 94
93 78 78 77 94 93 90 90 89 83 81 76 78 83 79 73 78 84 86 82 85 92 94 91 87 85 73 65 70 72 72 75 82 85 88 86 79 80 92 95 95 93 95 96
84 71 91 88 90 90 86 83 79 79 81 80 80 73 78 80 85 87 87 84 87 93 91 89 78 68 71 70 76 78 77 86 96 97 97 92 82 84 74 76 74 69 70 82
79 77 80 91 86 76 76 75 69 75 74 70 72 80 84 87 87 85 87 88 85 81 76 69 74 75 74 88 94 94 96 96 98 94 98 98 97 97 99 86 78 72 75 74
71 80 95 87 84 69 65 62 64 65 69 75 78 81 88 92 89 90 90 79 72 72 71 80 80 80 86 91 96 96 97 97 97 97 98 99 99 99 99 100 100 96 85 78
86 91 91 81 67 58 55 58 63 68 75 84 84 88 92 94 93 90 76 76 82 83 83 90 92 93 92 91 91 94 96 97 97 98 98 98 99 99 98 100 99 98 95 91
90 86 71 56 60 59 60 64 68 74 84 88 91 92 93 95 94 85 74 80 96 93 97 98 93 96 91 91 94 97 92 96 95 98 98 99 98 99 98 99 98 97 99 99
82 67 63 66 68 67 66 65 73 83 90 92 92 96 95 97 99 93 89 95 98 98 97 98 97 77 89 90 92 99 99 98 99 97 98 100 99 99 99 99 98 98 100 99
64 64 60 63 69 76 77 73 80 85 88 90 97 99 98 98 97 94 95 98 97 98 98 98 99 89 90 89 95 96 96 99 99 99 99 99 99 99 100 100 99 100 98 97
65 66 71 75 80 85 85 83 85 87 95 93 96 98 98 96 96 97 98 98 99 99 95 98 86 79 93 98 97 99 97 98 99 99 100 100 100 99 100 100 100 100 100 98
66 68 74 77 80 88 86 86 88 90 88 95 92 98 94 94 96 98 98 98 94 94 92 86 86 95 98 98 96 97 98 100 99 100 100 100 100 100 100 100 100 100 100 99
76 78 83 86 87 85 89 89 91 90 86 95 95 92 93 94 98 98 98 98 92 94 87 86 95 98 99 98 97 98 98 98 100 100 100 100 100 100 100 100 100 100 100 100
82 87 87 88 89 88 85 90 92 92 91 94 90 95 98 99 98 98 96 96 96 90 93 95 96 96 98 94 96 98 98 98 98 99 100 99 99 100 100 100 100 100 100 99
84 88 88 91 90 88 88 89 90 92 93 92 94 97 98 96 98 100 99 95 98 95 96 98 96 96 97 97 98 98 98 98 98 98 100 99 98 98 100 100 100 100 100 100
88 89 89 89 92 95 95 88 90 92 94 94 95 98 98 100 100 98 98 96 93 94 97 98 96 96 98 98 98 98 98 98 98 100 100 100 100 99 100 100 100 100 100 100
91 91 92 95 95 93 93 92 94 94 96 97 96 96 98 98 97 97 97 96 96 99 98 93 95 100 98 98 98 98 98 98 98 98 100 100 100 100 100 100 100 100 100 100
91 92 93 94 94 91 93 95 96 95 97 97 97 98 100 99 99 95 93 89 97 98 97 97 98 99 99 98 98 98 98 98 98 98 98 98 98 98 97 98 99 98 98 97
96 99 97 96 95 94 96 89 96 98 97 98 98 98 99 99 98 96 94 96 96 97 96 98 98 98 98 99 99 100 99 98 98 97 97 97 98 98 97 97 97 97 97 97

GFSNGP_sfc_rhum_009.txt.gz
RH
66 62 66 65 66 67 72 69 82 62 59 51 48 53 51 57 57 58 58 64 66 56 55 51 59 62 63 60 65 72 72 73 76 77 76 83 67 62 65 63 63 67 74 70
86 78 77 87 69 72 71 71 74 69 71 50 51 57 64 58 59 61 73 70 62 60 55 53 63 62 64 65 72 77 77 63 57 58 55 58 62 65 65 60 54 52 52 55
80 85 84 79 59 67 64 63 59 65 48 54 58 65 57 57 65 82 74 67 57 45 51 60 62 65 63 65 69 70 59 56 57 62 54 52 48 46 48 51 51 51 54 58
97 89 85 51 50 49 58 53 50 53 55 59 60 58 60 74 78 82 78 62 48 46 59 61 58 58 64 60 60 58 58 62 62 56 51 51 50 49 50 49 51 52 59 57
97 88 77 58 51 54 62 52 55 65 68 66 62 64 74 82 82 78 74 59 50 55 62 60 56 66 53 52 53 54 58 58 50 53 52 53 52 51 51 52 53 56 51 53
99 99 95 67 48 52 58 73 66 65 70 71 71 97 80 89 81 71 54 46 48 58 61 58 58 67 64 58 60 57 55 50 49 54 53 52 53 52 52 52 52 54 55 55
91 96 84 64 58 56 88 89 79 67 68 78 91 98 91 87 76 57 54 49 54 61 59 57 61 67 62 53 52 53 50 51 50 51 54 54 52 52 50 50 66 80 84 80
96 96 95 55 59 82 77 84 76 75 82 97 91 86 77 68 64 53 53 50 54 62 59 60 64 64 52 56 60 66 51 51 49 52 54 50 52 50 50 57 73 82 85 80
84 81 62 56 60 70 77 84 92 95 91 89 86 78 59 67 60 59 55 53 60 60 62 63 66 63 60 63 70 58 54 53 52 55 55 51 51 54 54 57 71 75 68 74
89 74 64 64 67 84 88 93 85 82 85 77 71 65 67 63 62 59 56 60 61 65 64 65 67 65 68 65 56 53 54 54 55 58 59 57 56 58 57 71 72 71 73 73
91 72 69 73 82 91 88 85 82 74 72 72 70 66 63 63 62 63 66 66 67 69 72 74 69 70 56 52 54 53 54 55 62 66 67 63 63 60 66 72 74 75 70 72
89 67 84 83 88 90 84 77 67 69 66 58 62 62 63 64 65 71 72 69 66 64 66 62 58 56 58 60 59 62 62 64 71 71 71 64 58 60 66 74 76 69 70 78
76 83 87 88 81 69 66 65 54 52 47 53 52 65 67 70 71 77 67 65 64 60 61 61 61 60 67 81 86 85 81 82 71 78 71 70 73 75 78 70 75 72 73 72
73 79 87 74 73 59 47 44 49 46 46 53 60 64 69 74 75 70 67 67 67 62 68 67 71 77 80 78 85 90 88 92 81 74 76 78 81 80 80 83 88 83 74 74
86 83 78 57 47 47 46 48 52 51 49 56 60 70 72 76 76 75 72 69 68 67 65 71 77 76 75 74 85 88 84 75 85 85 85 88 86 82 82 82 83 81 76 70
69 51 50 54 52 51 53 55 56 52 51 56 68 74 74 82 89 90 80 76 85 80 81 94 89 82 78 68 76 77 77 87 90 84 83 83 81 82 80 82 80 83 81 82
65 64 59 60 60 62 62 62 63 61 64 69 76 87 86 94 91 94 91 90 95 96 96 96 89 70 78 69 72 77 83 80 95 78 80 85 85 84 83 85 85 84 85 88
56 56 61 65 67 71 75 76 81 80 79 76 89 92 94 97 96 96 93 95 96 96 94 94 93 79 78 80 83 86 91 89 86 84 86 88 86 83 86 86 85 85 86 83
52 57 62 63 68 76 77 77 80 81 86 89 92 91 91 94 93 89 95 97 97 96 88 91 83 78 81 89 85 89 91 92 88 84 89 93 90 83 87 89 87 88 86 85
61 63 69 69 73 80 84 83 87 86 84 88 91 92 95 89 91 95 97 96 90 84 86 81 80 86 92 91 89 83 91 92 89 90 94 92 94 94 92 90 89 90 91 90
72 75 84 87 86 86 91 90 92 91 87 90 96 94 93 94 99 98 96 91 87 92 88 81 79 80 84 83 79 88 93 93 92 93 94 95 95 93 94 92 91 92 92 91
76 85 88 89 90 89 87 91 90 93 93 93 92 93 94 98 100 97 95 93 84 92 81 80 80 83 86 93 80 91 91 91 92 93 94 94 94 95 94 94 92 92 92 92
79 83 85 91 92 87 90 92 92 94 94 94 95 95 96 95 96 95 96 89 87 94 84 90 94 88 89 97 94 92 91 91 92 91 94 94 94 95 95 94 93 94 93 91
81 85 86 88 93 95 95 84 87 91 92 94 95 95 97 97 96 94 92 92 89 92 94 94 95 88 99 97 96 95 94 92 91 91 94 97 95 95 94 95 95 92 93 94
89 89 90 95 94 89 90 87 89 85 85 90 94 93 96 93 97 95 96 96 86 88 92 97 92 97 96 97 96 91 94 95 95 95 94 96 95 95 94 94 95 94 93 91
86 84 87 91 89 89 90 89 90 90 89 92 97 100 97 96 96 95 91 87 85 91 92 94 94 95 96 96 96 95 94 93 95 94 95 94 94 94 94 93 93 93 93 91
89 97 89 84 80 79 90 93 97 94 92 95 98 100 94 97 99 97 92 90 90 90 91 92 95 94 93 96 95 95 95 95 96 93 94 94 94 94 94 94 93 93 93 93

GFSNGP_sfc_rhum_012.txt.gz
RH
40 38 37 41 40 36 40 46 62 49 38 33 31 33 36 40 41 41 43 50 49 48 41 32 34 44 44 42 42 46 48 46 50 50 46 43 44 43 43 44 38 37 38 40
59 46 40 49 39 35 40 43 44 42 44 33 33 38 44 45 47 52 56 54 57 52 32 32 40 47 41 37 39 48 46 48 45 45 43 43 44 42 39 36 36 38 39 41
84 60 62 85 51 38 38 41 43 53 39 39 44 49 51 50 53 63 68 67 54 35 30 38 43 42 37 38 42 45 46 43 43 46 45 42 37 32 34 39 41 43 43 44
98 92 93 44 33 34 42 38 33 33 42 48 48 48 43 56 66 80 69 43 35 32 34 40 42 35 38 35 38 43 45 43 45 43 42 36 33 34 39 40 42 42 45 45
100 74 53 44 42 44 48 48 43 51 51 48 46 46 50 75 85 77 56 41 36 32 35 41 41 36 40 41 39 40 44 45 43 42 40 33 35 39 41 42 43 43 44 46
94 99 91 53 42 41 46 58 52 65 74 68 63 92 92 81 64 50 42 35 32 32 35 40 39 38 43 42 38 38 41 44 40 40 38 35 39 43 43 40 42 45 55 55
88 98 69 44 44 46 87 84 65 76 81 82 93 90 78 74 47 36 34 32 31 30 34 38 37 39 45 40 38 33 38 41 40 38 36 37 41 42 42 43 54 77 88 76
96 99 96 43 45 83 61 63 80 82 85 86 85 74 58 43 37 31 30 29 29 33 34 35 36 40 42 38 32 35 44 45 42 39 36 36 42 43 44 48 62 80 91 84
62 66 42 42 49 47 62 71 90 82 63 76 60 49 39 35 31 30 32 31 31 34 40 36 34 37 45 40 42 48 58 48 43 41 41 41 44 47 49 50 70 77 66 70
73 52 45 49 44 57 73 88 72 63 55 48 49 42 35 33 32 34 32 32 36 39 37 39 40 48 53 62 72 65 52 45 44 44 47 44 45 47 46 63 76 65 64 61
66 58 55 46 66 74 82 81 76 45 46 45 34 33 32 32 33 32 34 37 39 38 41 39 40 47 50 45 45 43 44 44 47 52 53 51 47 45 54 63 70 68 63 64
96 64 76 70 72 78 86 58 48 46 35 30 30 32 32 32 32 34 38 43 39 40 43 41 44 52 46 50 52 57 54 51 56 62 61 57 47 49 72 72 71 68 69 75
74 77 66 72 73 58 48 47 35 34 31 33 31 30 33 36 37 47 41 40 42 48 48 50 58 51 58 73 80 84 73 72 63 70 63 61 63 65 67 61 71 70 70 68
61 66 72 64 61 46 39 36 38 33 30 29 30 34 37 39 40 41 44 49 52 53 54 54 56 69 64 61 68 87 84 88 69 65 66 68 71 72 69 73 75 70 62 61
70 62 58 47 41 38 34 33 34 29 30 36 36 42 46 48 48 53 58 63 63 64 57 51 67 72 59 62 65 67 66 66 82 80 79 80 80 75 72 71 68 66 61 55
50 45 41 39 35 32 30 30 34 39 40 40 44 50 50 51 54 62 75 80 91 81 72 91 96 72 65 57 56 61 61 81 80 73 73 72 74 72 70 69 67 68 64 67
54 48 39 36 30 33 37 41 43 44 54 53 62 77 68 79 88 86 81 90 97 98 98 98 93 61 63 56 63 59 64 63 85 68 69 71 74 73 72 72 71 70 70 79
29 31 33 37 40 46 51 53 61 64 67 67 91 93 92 94 94 95 96 97 100 95 96 91 88 67 65 58 68 64 72 78 73 74 72 77 76 74 75 75 70 71 72 71
33 36 41 46 49 56 59 60 69 80 91 94 96 96 95 94 95 98 97 100 99 97 82 93 84 77 66 76 75 67 74 84 78 74 80 81 83 79 80 80 78 77 74 70
40 43 50 54 61 72 82 83 95 85 80 89 95 96 97 95 98 99 100 100 98 82 90 81 79 81 83 74 82 64 81 87 80 83 88 82 86 85 85 83 84 79 80 80
56 57 78 91 90 94 93 95 95 92 89 94 97 97 96 99 100 100 100 92 88 100 92 83 77 60 58 67 69 83 90 94 93 90 88 85 84 85 85 87 85 83 80 81
56 80 99 94 93 89 92 95 92 97 96 95 93 94 97 99 100 99 100 98 79 89 80 80 67 71 64 85 71 96 84 87 90 90 91 88 85 85 85 86 86 85 81 82
62 66 76 94 96 80 89 96 97 100 98 97 97 100 98 94 94 97 91 99 80 92 84 90 86 86 88 100 100 100 98 93 93 91 91 87 84 84 84 84 84 84 83 80
65 70 73 85 98 95 94 71 84 95 100 97 95 95 99 100 99 89 92 97 89 94 99 100 96 89 88 100 100 99 96 94 94 95 91 88 89 86 85 84 84 82 83 84
87 81 80 97 87 66 68 71 80 81 82 89 89 88 95 99 100 98 100 100 95 92 100 94 87 87 100 100 100 95 92 91 94 94 92 93 92 89 86 84 86 86 83 84
69 64 62 71 74 68 67 68 80 81 85 95 91 99 99 100 100 98 100 98 97 88 96 100 100 100 100 97 96 95 92 86 88 86 88 88 89 90 87 86 84 84 85 84
69 84 74 72 64 67 72 74 91 93 94 100 97 98 96 100 100 99 99 100 100 100 100 100 100 95 95 97 92 92 92 90 87 86 86 87 86 87 87 86 86 85 86 86

GFSNGP_sfc_rhum_015.txt.gz
RH
31 25 23 25 27 26 26 28 46 41 33 29 28 30 31 32 34 36 37 41 43 43 37 30 25 29 32 36 33 32 33 34 37 38 40 42 43 40 37 35 31 30 33 34
52 31 26 34 27 25 24 28 30 30 34 27 28 28 34 38 40 42 48 49 49 35 28 25 27 29 33 33 33 33 34 35 34 38 45 46 42 39 32 32 31 34 36 37
70 52 57 82 46 27 27 27 34 50 36 29 34 42 49 48 49 51 63 64 46 32 28 28 27 30 32 30 30 31 32 31 34 43 46 43 37 29 30 34 36 38 38 37
94 89 91 36 26 27 30 30 26 27 30 36 48 47 50 48 53 64 60 49 39 32 28 25 24 26 30 28 30 30 31 34 40 42 43 38 34 30 34 35 38 39 40 41
98 64 46 37 37 40 44 44 30 41 44 42 44 49 52 59 59 59 53 41 31 26 24 24 24 24 26 30 28 28 29 28 34 42 45 38 34 34 36 37 39 38 40 49
93 98 89 49 34 34 37 57 47 48 54 58 62 84 71 55 52 46 34 26 24 24 24 23 23 24 27 27 27 30 32 28 32 36 38 39 35 37 38 36 36 42 52 55
86 98 63 34 37 38 69 70 52 61 61 77 74 77 66 58 44 30 25 22 23 23 24 24 25 26 27 26 27 27 31 32 40 53 48 38 36 37 36 37 48 71 86 73
88 98 88 36 38 76 57 56 57 73 77 75 61 57 48 36 29 25 23 22 21 23 24 26 24 26 26 26 29 39 46 53 67 63 44 35 39 38 39 41 55 73 95 86
57 58 34 37 46 48 49 60 73 82 75 65 50 42 35 31 26 24 22 19 19 21 27 25 25 24 27 31 38 50 62 72 66 47 45 36 39 39 41 45 60 76 63 71
64 41 38 40 46 54 60 69 70 72 62 40 41 35 29 27 26 23 18 19 20 25 27 28 27 27 31 42 47 47 55 52 49 45 44 41 36 35 40 54 69 62 62 60
64 44 43 42 58 62 62 69 74 48 39 40 33 29 28 25 22 21 22 22 26 29 29 30 30 35 39 47 49 50 50 46 48 46 45 46 42 42 49 57 67 64 61 64
79 50 68 72 73 63 67 68 43 42 36 31 29 27 23 24 24 24 27 28 27 28 31 33 40 45 48 50 54 62 62 53 56 58 59 59 46 47 69 73 67 66 65 74
54 54 65 75 68 56 47 43 36 35 32 30 24 22 24 28 29 37 30 29 31 36 39 47 53 50 52 60 64 72 69 68 61 67 66 61 63 69 70 68 82 72 69 67
56 64 83 71 64 44 39 35 37 28 23 23 24 26 28 29 31 32 33 37 41 47 54 51 53 55 63 55 59 70 67 74 73 74 72 73 75 74 71 77 78 71 83 63
66 70 71 59 40 36 31 26 24 24 25 28 27 30 33 37 40 41 40 44 58 70 60 53 59 59 55 59 57 54 62 67 80 85 83 80 82 79 75 74 71 65 64 59
52 43 40 38 32 25 23 25 28 31 30 32 39 48 46 47 48 52 56 60 85 84 80 93 92 75 61 58 52 48 50 78 77 76 80 78 76 78 74 74 70 66 68 67
54 49 38 32 27 28 30 31 33 36 46 46 53 68 67 76 83 71 70 81 100 100 100 97 93 67 63 59 54 52 57 67 80 72 79 75 75 80 75 77 76 70 73 85
29 27 26 28 31 35 41 47 52 52 57 62 91 97 97 98 94 93 94 96 100 100 99 88 88 68 64 57 59 59 67 78 82 83 78 84 82 74 81 79 78 74 74 73
26 28 30 31 37 48 53 53 54 70 94 99 99 98 98 97 91 90 94 99 100 100 86 91 89 80 64 66 70 64 77 83 84 81 82 81 86 84 86 86 83 82 76 73
28 29 35 41 50 65 75 73 96 75 70 84 99 98 98 95 97 99 100 100 96 89 96 78 77 76 73 63 83 65 80 86 83 85 91 84 88 90 88 85 85 85 86 84
44 46 54 83 83 98 100 100 100 92 83 100 100 98 96 95 93 98 99 83 81 100 88 84 79 70 52 58 68 91 93 90 91 89 92 93 90 86 89 89 90 88 89 85
47 64 100 100 96 83 84 88 85 100 100 100 99 92 89 91 94 96 100 98 78 99 85 83 74 75 62 80 62 98 85 84 88 91 90 92 94 88 90 89 89 88 87 86
47 52 67 94 100 76 80 92 100 100 100 100 100 100 98 91 89 96 92 90 89 98 89 93 90 85 84 100 100 100 98 95 90 92 92 94 91 88 90 89 88 88 87 85
52 55 60 71 93 94 94 64 66 79 100 99 100 100 96 96 99 90 88 88 98 96 99 100 98 88 90 100 100 100 100 100 99 100 92 90 100 92 88 89 89 86 86 86
70 68 69 92 82 67 52 52 63 72 78 75 86 87 98 88 100 98 100 100 98 98 100 99 93 89 100 100 100 100 100 100 98 94 89 98 96 98 94 88 88 88 88 86
56 56 52 53 58 56 60 60 68 72 74 90 89 99 100 100 100 100 100 99 100 94 100 100 100 100 100 100 100 100 97 88 89 88 89 87 88 88 89 89 89 89 90 89
53 69 58 63 58 56 61 66 86 89 89 100 98 100 92 100 100 97 98 100 100 100 100 100 100 99 98 100 99 96 94 93 87 87 84 85 89 87 87 88 89 90 90 90

GFSNGP_sfc_rhum_018.txt.gz
RH
33 25 23 24 24 23 26 30 48 40 29 27 33 31 36 38 38 39 40 42 46 48 44 34 33 32 34 36 42 40 40 39 46 48 49 54 59 58 56 55 45 46 46 50
60 27 28 34 30 29 26 26 25 30 33 25 36 42 47 48 46 44 48 50 52 45 36 32 32 32 31 34 41 40 40 40 40 46 49 56 60 61 57 50 48 50 52 52
79 57 62 88 55 30 29 28 32 51 38 40 44 44 45 48 47 54 54 53 48 40 37 32 29 29 30 30 34 42 42 39 42 49 51 58 55 49 47 51 54 57 57 55
94 92 85 35 25 27 32 30 27 28 36 41 45 45 42 52 56 56 53 50 45 39 31 29 27 27 30 26 29 31 34 35 42 53 53 51 52 51 51 52 56 58 60 61
100 70 50 37 36 42 46 46 33 42 46 47 46 48 49 53 52 53 50 43 33 26 26 27 27 27 29 29 28 28 30 44 52 56 46 55 54 55 53 55 58 59 58 67
95 94 81 53 32 34 36 64 48 53 59 61 58 84 63 53 50 42 31 26 24 24 23 25 27 28 29 28 29 30 45 54 53 59 70 79 85 63 56 54 54 71 76 77
91 95 73 36 34 36 64 75 62 60 62 68 74 73 60 50 39 27 24 23 24 23 24 26 27 27 29 29 30 34 47 53 56 63 78 81 74 54 55 58 71 90 93 90
90 95 88 35 36 72 64 63 64 66 68 73 73 57 43 34 29 25 23 21 18 22 24 27 25 28 29 30 36 43 47 52 63 82 80 55 59 59 58 60 79 88 90 87
68 72 46 40 46 52 60 64 76 66 68 66 57 40 35 31 28 25 21 19 20 22 27 27 26 27 32 40 43 49 54 58 62 62 54 54 57 58 59 66 85 87 78 81
69 45 37 41 46 58 60 65 61 65 61 56 42 40 32 30 27 24 21 22 23 27 28 31 30 33 42 46 49 53 57 56 54 55 55 54 50 53 62 85 90 83 80 80
59 43 44 43 56 61 61 66 67 58 44 38 35 33 31 27 26 26 25 27 29 31 32 34 35 44 46 46 56 56 61 61 68 72 70 65 55 67 79 86 84 87 88 87
80 53 62 65 67 64 79 74 59 40 37 33 31 27 26 29 30 28 31 31 30 33 38 39 45 49 50 50 57 70 76 73 76 77 79 72 66 66 73 77 67 66 65 86
52 55 66 68 66 63 64 50 37 36 32 26 24 27 29 30 30 38 32 34 37 40 47 54 56 54 54 67 72 77 69 73 72 79 82 78 80 80 86 82 79 78 72 72
52 62 71 66 65 46 39 36 38 26 22 28 28 28 30 35 37 40 41 44 44 48 60 64 63 62 74 65 70 82 77 77 85 87 90 89 87 84 88 88 91 87 88 81
58 58 66 67 61 41 33 26 25 27 29 31 32 36 42 45 48 50 52 53 56 60 61 64 70 77 66 74 72 71 69 78 87 89 94 92 91 91 90 86 86 84 87 82
58 50 57 48 36 28 25 28 32 33 32 37 43 60 54 54 56 63 66 66 87 88 83 88 93 84 79 65 69 66 65 77 83 85 89 91 92 91 89 90 86 86 87 94
60 55 42 36 30 30 32 34 36 40 48 50 69 78 72 81 90 79 80 85 89 92 95 97 94 77 81 72 73 68 73 76 84 87 83 93 91 91 92 92 91 89 91 95
42 36 29 29 32 37 47 61 66 66 70 75 91 95 96 96 93 86 85 89 90 92 95 96 92 88 82 72 73 76 83 83 86 92 91 92 92 89 88 92 92 92 94 93
28 28 31 31 36 58 66 68 68 81 90 92 96 95 94 94 92 84 84 89 92 92 85 96 95 91 80 74 75 81 80 89 87 87 90 92 95 91 93 93 94 94 93 94
29 30 36 43 55 75 82 79 91 83 78 84 95 95 94 92 87 90 91 87 86 90 92 96 91 91 85 78 87 79 84 88 88 89 91 92 92 92 94 91 93 94 93 94
61 60 64 85 90 93 99 96 97 95 89 96 98 94 93 89 88 89 93 90 80 99 91 96 97 83 78 78 78 89 91 92 92 91 92 92 94 92 93 94 93 93 95 96
64 69 95 92 94 89 88 90 90 98 98 96 94 97 94 89 84 80 85 86 89 96 99 98 92 87 83 80 80 95 94 90 90 91 92 92 92 94 94 96 95 93 93 95
64 64 69 91 92 81 84 96 94 100 98 98 98 94 92 88 89 94 91 82 95 94 99 100 96 91 87 92 96 97 96 92 91 90 90 91 92 92 94 95 95 95 94 93
68 68 69 75 90 94 92 81 80 92 96 94 92 93 94 97 96 86 87 88 96 98 100 100 99 96 90 97 93 94 96 93 92 92 90 89 92 92 92 92 93 94 94 93
76 74 75 88 84 81 80 76 76 80 87 87 86 83 93 94 98 88 98 98 98 99 100 98 98 97 97 96 95 95 94 92 92 92 92 93 92 91 92 91 93 92 94 95
70 68 66 70 71 68 68 68 76 79 88 90 90 94 98 100 99 98 98 96 98 98 99 100 100 99 99 97 97 96 92 92 90 91 92 93 94 94 93 92 94 95 96 95
70 78 70 69 66 67 71 72 83 96 97 100 95 94 93 94 95 94 97 100 100 99 100 100 100 99 99 98 96 95 92 93 90 90 93 96 94 94 95 96 96 96 95 95

GFSNGP_sfc_rhum_021.txt.gz
RH
49 39 35 36 37 36 38 43 61 54 49 57 60 61 60 56 54 55 58 58 59 60 61 50 44 45 43 44 47 52 50 51 54 57 58 61 65 71 65 59 56 50 52 58
70 50 48 51 46 46 39 41 44 44 53 54 56 55 55 58 59 63 62 60 59 55 47 45 39 38 37 42 48 52 51 52 55 67 64 69 76 68 76 58 51 53 56 59
88 74 81 81 64 42 41 42 45 62 57 58 62 59 66 72 66 65 66 64 58 54 50 43 39 37 43 41 42 44 40 53 58 67 72 76 79 81 71 53 56 60 61 66
92 84 59 56 40 43 47 44 43 51 60 60 65 65 71 67 71 70 64 59 58 57 53 37 39 41 41 38 40 42 47 60 65 69 74 81 83 81 68 59 56 62 69 74
96 95 64 50 48 54 60 60 62 70 66 67 67 62 76 63 67 69 64 59 50 37 36 38 39 38 38 38 39 38 65 70 75 84 89 91 93 98 88 69 70 75 80 83
98 91 83 65 49 44 51 85 72 70 79 79 73 95 87 67 61 62 39 33 34 33 32 36 37 36 39 39 42 57 62 61 67 73 86 88 92 86 80 68 78 84 85 88
98 95 85 62 46 46 76 74 82 77 81 84 88 88 77 67 60 37 33 31 31 30 34 36 35 37 40 44 56 55 58 63 69 87 92 92 92 89 71 74 88 93 93 90
91 90 94 52 49 64 70 80 81 80 84 82 84 81 71 45 37 34 32 27 28 34 37 37 34 40 46 56 54 58 63 66 69 76 78 73 73 71 72 86 86 94 94 94
81 83 62 54 58 69 71 84 83 83 78 79 78 68 48 42 40 35 30 32 32 38 40 38 42 50 57 59 60 67 70 72 71 68 62 63 69 74 81 85 94 95 92 96
78 63 56 68 76 76 78 79 77 73 74 70 72 51 45 42 38 37 36 36 39 39 42 48 48 54 61 60 66 70 75 77 75 80 80 76 71 75 87 96 96 92 94 95
76 64 61 74 75 74 80 77 73 67 64 50 46 45 38 41 41 41 40 40 41 46 50 52 59 62 61 60 69 73 78 79 87 87 87 83 77 79 93 88 88 94 96 95
87 70 75 89 82 78 82 77 70 65 46 42 37 40 40 42 44 45 47 49 49 52 58 68 68 69 64 67 72 78 82 85 93 93 95 90 89 89 79 80 74 72 68 92
74 81 84 83 78 75 80 71 56 44 40 40 40 41 42 48 51 58 53 54 59 60 69 75 79 79 81 84 78 83 80 79 93 89 98 96 94 86 88 90 82 80 78 75
72 77 86 78 84 71 56 46 48 35 40 42 43 46 54 56 60 60 61 68 65 71 74 75 66 70 82 83 81 90 87 85 95 97 97 97 95 88 96 100 98 95 84 83
75 74 80 78 67 49 42 36 41 43 44 50 51 63 65 70 70 72 74 72 80 83 80 80 80 72 69 85 83 82 85 92 93 91 88 95 96 98 97 96 97 98 96 95
70 73 76 76 70 38 41 44 46 51 57 57 67 75 78 77 78 81 85 88 93 93 91 93 94 90 87 86 79 84 87 82 91 93 94 96 98 97 96 98 98 96 98 98
73 77 64 48 46 45 48 53 56 62 66 68 75 84 86 91 96 94 91 92 94 91 92 92 93 87 86 84 81 94 97 94 90 96 96 94 97 96 98 97 95 97 98 98
42 42 42 43 48 55 67 71 69 75 74 81 91 96 98 100 98 95 86 88 87 83 87 88 91 95 96 87 79 93 94 95 94 96 98 99 98 97 96 97 98 99 98 98
38 41 45 50 60 67 70 71 75 84 91 92 96 96 96 97 97 88 84 82 84 82 81 92 97 99 96 90 86 94 93 93 94 96 95 97 98 98 96 99 98 97 97 97
47 55 56 60 68 73 79 78 92 89 88 93 95 100 94 92 92 88 83 87 90 86 87 97 96 98 95 89 92 94 93 94 95 95 99 98 98 98 98 97 96 99 99 98
56 61 64 77 85 90 98 95 97 98 92 97 100 94 95 92 92 90 93 88 77 88 92 98 96 99 93 92 93 95 94 96 98 95 97 98 98 98 98 96 98 99 98 98
71 71 84 88 92 88 90 91 91 97 100 100 99 98 98 97 95 93 90 88 84 93 98 99 98 98 95 90 89 94 94 96 97 96 96 96 98 98 98 98 97 97 98 99
71 71 75 86 90 82 85 96 96 96 95 96 95 98 98 92 92 96 96 89 93 91 94 98 98 98 99 95 96 93 98 99 98 97 94 94 93 95 95 95 96 96 96 95
76 76 76 80 89 95 91 82 89 91 93 94 98 96 94 96 90 95 94 89 92 94 94 99 98 98 98 99 98 98 96 95 98 96 96 94 96 96 97 98 97 96 95 94
84 76 78 91 88 88 89 89 90 91 91 92 94 94 93 96 99 94 95 94 93 96 97 95 98 98 98 98 97 96 96 96 96 96 95 95 96 96 96 98 98 98 97 96
79 89 90 82 87 90 88 90 91 90 96 98 99 98 96 98 97 96 95 94 93 98 98 98 99 99 98 98 97 96 97 96 97 96 96 94 93 95 98 97 98 99 99 98
84 89 92 92 93 92 92 96 99 97 100 100 99 97 97 97 97 97 98 96 94 94 94 96 98 98 98 98 98 97 95 97 97 97 96 96 97 97 97 97 98 98 98 99

GFSNGP_sfc_rhum_024.txt.gz
RH
53 47 44 43 44 45 43 52 65 55 59 68 71 71 67 63 67 67 66 63 61 61 62 55 49 44 44 49 53 54 51 59 67 69 68 66 69 75 86 86 78 74 59 58
58 62 61 52 47 53 52 46 47 60 75 65 66 64 68 69 68 65 63 64 64 61 56 54 51 45 45 45 46 49 51 62 67 71 74 81 85 88 90 89 85 64 63 65
69 80 73 75 59 50 47 50 50 61 63 68 70 71 80 77 70 69 72 69 63 61 61 60 44 43 43 42 44 47 62 69 76 80 79 82 86 90 87 93 94 87 69 71
81 75 48 47 48 43 50 55 66 67 70 67 70 79 79 74 74 74 69 62 60 56 48 44 42 41 42 40 43 60 73 75 80 85 86 90 95 92 97 98 97 72 81 83
76 89 54 52 52 54 53 61 69 71 73 73 76 76 82 67 68 76 71 62 47 40 40 41 39 40 41 44 53 64 67 68 75 80 88 95 93 90 98 92 79 84 83 83
99 69 61 51 56 49 50 82 74 76 82 80 76 90 83 73 66 65 50 38 33 33 37 38 38 39 44 52 61 65 66 67 72 83 89 95 95 94 91 81 82 84 84 88
100 94 81 58 54 50 76 66 82 80 84 85 84 82 77 78 66 45 36 31 35 38 39 40 41 48 56 62 64 62 64 68 69 75 86 87 92 92 86 91 88 94 89 88
98 98 81 58 58 64 67 84 83 87 84 85 84 84 81 49 42 36 31 33 35 42 43 46 50 56 62 64 60 65 70 72 73 76 73 68 81 82 84 87 86 95 95 95
78 80 60 60 60 64 78 85 84 84 82 78 80 78 48 48 41 38 38 40 40 45 48 50 55 60 63 63 65 72 76 80 82 81 77 76 76 83 87 87 95 96 93 97
79 62 65 62 86 83 84 85 80 76 76 76 75 55 48 44 45 45 43 45 46 50 53 58 62 62 67 68 69 76 80 81 85 81 83 83 76 80 85 97 97 94 96 96
82 70 82 82 85 82 82 80 75 68 66 63 51 46 45 45 48 48 49 51 53 60 65 67 72 75 75 73 75 78 79 80 83 89 89 89 78 84 92 88 91 95 96 96
86 63 66 83 85 82 84 78 70 68 49 44 44 44 44 52 55 56 61 61 65 70 72 75 77 79 80 80 77 80 81 84 91 96 96 92 91 88 78 82 82 83 77 91
72 79 83 87 86 81 79 74 66 49 44 46 45 49 54 57 62 68 65 68 75 75 82 83 85 85 84 86 88 93 85 81 95 94 99 99 97 89 95 89 82 80 80 79
80 81 89 86 88 77 68 58 47 44 47 50 53 60 64 67 68 70 73 78 77 84 84 85 86 89 82 80 84 92 88 91 94 96 95 97 98 94 96 98 100 98 85 83
83 81 81 77 69 51 43 42 47 50 55 58 65 68 74 77 77 80 82 83 89 90 89 87 90 89 80 85 84 89 83 96 97 93 94 91 96 98 98 97 98 98 98 97
83 81 74 69 45 43 45 50 53 59 60 62 68 73 81 84 86 89 91 91 95 92 86 88 95 88 89 90 86 88 79 93 96 96 94 95 96 98 97 98 98 97 99 98
88 89 70 55 51 53 55 56 57 60 67 70 73 82 85 93 96 93 92 93 92 92 87 84 93 82 90 93 94 88 85 94 88 93 97 98 98 97 97 98 96 98 98 98
57 52 50 52 61 68 68 70 69 70 71 77 90 96 98 100 99 97 94 90 88 81 78 86 88 91 98 97 98 88 94 93 96 94 95 99 98 99 98 98 96 99 99 99
49 55 58 59 60 68 71 72 72 81 90 92 96 95 97 98 96 95 93 94 88 82 76 89 93 98 98 97 99 97 96 95 95 96 96 96 100 98 98 98 99 97 98 99
52 58 64 63 64 65 72 72 89 85 84 95 97 100 96 94 94 94 94 94 88 84 88 91 93 98 96 97 98 97 96 94 93 94 95 97 99 99 98 99 97 99 99 100
62 60 62 76 82 87 93 93 95 94 89 96 100 98 98 94 96 96 99 97 86 89 89 97 97 98 96 98 98 97 97 97 96 94 94 97 97 98 98 97 98 98 98 100
69 72 81 86 90 84 87 90 91 94 96 99 99 98 100 99 96 95 94 93 86 95 94 96 95 96 98 98 98 98 97 97 96 96 97 97 96 96 97 97 98 97 96 99
70 71 76 88 89 79 82 92 93 95 96 95 94 94 96 98 96 99 94 89 92 91 93 93 91 94 97 99 98 98 97 96 96 97 96 96 94 95 93 94 95 96 96 96
77 78 78 81 91 97 92 80 84 88 92 92 93 91 94 98 97 96 94 97 95 99 94 90 96 97 97 98 97 97 97 97 97 96 97 97 96 95 95 97 98 97 97 98
86 79 79 92 86 87 84 85 91 92 91 91 90 92 96 95 98 95 98 98 99 98 87 84 96 98 98 98 97 97 96 96 96 97 97 97 96 96 94 96 97 98 98 98
79 90 90 84 90 92 92 95 95 96 98 98 97 98 96 97 97 97 98 99 98 95 89 90 90 90 92 97 98 98 97 96 97 96 97 97 97 97 96 94 96 97 97 98
88 94 92 93 92 92 93 95 99 97 99 100 98 95 98 98 97 100 100 97 98 96 95 93 93 92 91 92 94 93 95 96 97 97 97 97 98 97 97 96 97 97 98 98

GFSNGP_sfc_rhum_030.txt.gz
RH
67 65 54 45 45 61 54 55 56 53 61 49 62 72 75 77 80 78 74 69 66 66 64 56 61 50 47 48 50 53 54 68 77 78 79 81 84 90 94 95 92 83 79 84
76 72 67 58 49 50 54 54 61 62 57 54 80 77 79 78 80 77 72 67 63 61 61 63 48 47 45 44 48 54 56 75 77 80 82 86 91 96 93 92 88 92 93 90
67 78 59 57 53 51 54 58 53 63 55 82 82 79 83 85 81 78 74 68 62 61 55 49 45 44 43 45 51 55 74 74 75 81 87 88 93 95 88 95 96 96 88 81
73 72 55 41 52 53 52 52 54 66 71 78 79 82 81 83 82 82 77 66 62 52 48 47 46 44 48 48 51 72 72 71 71 80 84 89 92 87 91 93 87 93 87 81
75 76 46 33 50 61 58 53 64 64 80 80 86 81 82 80 79 78 73 70 56 44 48 46 42 43 48 52 67 66 67 70 74 82 84 88 90 91 95 97 96 87 81 83
95 64 53 42 50 56 52 72 62 69 81 86 83 93 78 79 74 70 69 44 37 43 42 43 44 50 51 57 65 68 70 72 77 78 81 86 88 91 95 95 86 83 76 82
100 81 67 49 56 56 63 59 82 74 81 91 86 82 74 79 74 62 41 36 40 42 45 48 51 55 60 66 70 68 71 76 77 79 85 81 84 91 92 92 86 93 90 88
96 96 73 54 60 64 64 74 81 81 83 80 83 80 84 77 48 38 37 41 44 48 52 54 59 64 67 74 70 73 77 81 80 82 83 76 80 86 85 88 86 95 95 94
76 77 57 56 70 68 68 68 83 84 83 78 81 85 64 50 44 42 41 45 49 53 59 64 65 70 76 78 80 84 86 84 76 76 76 78 86 85 88 87 95 95 97 98
74 56 66 66 63 74 74 78 83 84 84 81 82 71 52 55 63 49 47 52 55 62 69 74 76 79 85 86 87 87 83 83 76 80 81 84 79 78 85 98 98 95 98 97
81 71 74 68 77 69 82 84 86 83 82 80 66 62 71 67 52 49 54 59 64 74 79 79 87 87 86 87 90 87 84 81 81 88 88 84 85 84 87 90 92 95 96 96
78 57 63 62 73 85 86 87 84 80 76 66 72 68 52 54 56 59 62 67 75 76 82 89 92 90 90 90 93 94 95 90 90 96 98 87 96 92 79 85 83 84 86 97
62 69 72 82 86 88 87 85 74 62 56 48 47 50 56 60 65 68 67 75 78 83 91 92 93 94 92 93 94 96 96 92 94 97 97 98 98 98 98 87 78 79 79 78
80 87 87 91 86 86 81 59 50 47 51 55 60 60 63 65 69 68 72 79 84 91 92 93 92 87 85 91 94 97 95 98 98 98 98 98 96 95 96 98 98 96 83 83
85 89 86 88 86 58 49 44 52 64 70 73 66 68 74 71 70 72 80 85 88 90 89 91 86 76 80 89 94 95 98 98 98 97 97 97 97 97 95 96 98 98 98 96
90 89 76 66 52 52 62 77 87 88 71 68 69 82 77 75 76 80 84 89 94 92 85 92 92 82 81 85 92 95 98 97 98 98 93 97 98 98 97 97 96 96 97 97
93 75 70 79 92 95 97 95 82 68 73 75 78 75 79 86 94 88 88 95 96 95 93 94 91 82 83 83 89 96 96 95 97 98 95 97 97 99 98 99 98 97 97 96
90 90 91 96 96 94 90 86 86 79 73 68 89 95 95 98 92 92 93 94 97 95 93 90 90 86 88 92 96 97 98 98 97 97 97 98 96 96 97 98 98 99 98 97
94 96 97 96 96 96 93 84 78 80 89 93 95 92 93 95 96 95 97 99 97 97 87 91 90 93 92 94 94 97 98 98 97 97 97 97 97 96 97 97 97 98 98 98
92 93 94 91 83 76 74 69 87 80 79 94 97 100 99 97 96 96 97 97 91 88 91 91 94 96 93 90 96 98 98 98 97 97 97 97 96 94 93 95 95 96 97 98
68 66 74 87 86 89 91 94 93 92 89 95 99 96 96 96 96 99 100 99 85 91 91 96 97 97 91 87 93 97 98 98 98 97 97 97 96 96 96 96 96 96 96 96
74 78 88 89 91 85 86 89 88 95 94 95 96 96 98 97 97 98 95 94 84 94 97 98 96 89 91 92 92 97 97 97 97 97 97 97 97 96 96 95 96 96 96 95
78 76 79 90 91 82 88 91 93 95 94 92 92 92 95 92 94 100 95 88 95 97 96 98 96 92 91 92 94 92 90 92 94 95 96 96 96 96 96 96 95 95 96 96
76 79 81 86 94 92 90 87 90 91 94 93 92 92 96 97 93 96 94 96 98 95 98 97 94 91 92 95 94 93 92 93 95 94 96 95 96 95 96 96 96 95 96 97
92 92 94 95 96 98 95 93 92 92 92 93 94 94 95 97 98 92 98 96 97 97 98 97 98 98 98 96 94 95 94 93 93 94 94 97 96 95 94 95 95 95 96 96
96 96 94 93 85 84 90 90 93 88 83 85 82 83 88 95 95 97 96 97 97 98 97 98 98 98 98 97 97 96 96 94 94 94 94 92 92 90 94 96 96 96 96 97
90 88 84 86 84 81 83 83 88 89 87 94 93 88 93 91 92 94 95 98 98 98 97 97 98 97 96 97 97 96 96 94 93 95 94 94 94 94 96 96 97 98 97 97

GFSNGP_sfc_rhum_036.txt.gz
RH
33 33 31 27 27 30 27 24 36 20 19 12 15 18 22 30 35 39 42 42 40 38 36 33 34 33 31 32 30 27 25 26 31 39 41 41 46 45 47 52 50 49 55 57
45 40 37 36 28 25 27 24 26 23 24 16 18 22 28 37 40 42 42 41 40 38 36 34 34 34 32 29 28 27 28 30 35 44 42 45 46 48 50 51 49 53 53 53
40 41 39 73 38 27 24 28 29 32 24 21 27 29 28 34 39 40 41 41 40 38 36 35 36 31 30 25 28 30 29 34 41 43 44 44 43 43 44 48 52 59 58 55
65 68 81 19 23 25 27 24 20 22 19 22 23 29 34 31 35 41 41 42 41 37 36 35 29 26 26 24 27 30 34 38 40 42 42 42 43 45 49 52 54 59 64 58
92 42 27 16 22 25 30 20 20 20 20 26 39 42 38 37 37 41 42 41 39 36 34 29 27 25 24 27 28 34 35 36 37 40 42 43 45 51 51 48 50 61 61 56
72 89 90 30 31 35 33 35 25 30 32 42 42 51 22 39 43 42 40 39 39 33 29 28 25 27 28 28 32 33 38 37 38 40 43 45 49 52 50 48 50 64 59 57
75 91 48 26 25 36 43 35 33 38 37 43 46 32 42 39 45 41 42 38 31 31 29 26 30 31 31 31 34 35 40 41 39 38 44 48 51 49 48 48 54 62 71 62
80 98 80 31 39 48 40 37 36 40 40 48 42 50 48 47 47 43 35 30 26 30 37 37 33 34 29 34 35 40 43 42 41 43 47 46 50 49 49 50 56 64 97 83
47 45 34 34 38 36 41 43 41 43 38 47 50 49 49 49 44 34 28 26 35 41 45 39 36 35 35 32 44 47 46 45 46 48 48 46 47 51 51 48 55 63 63 68
52 31 33 33 32 32 32 39 38 36 39 43 47 48 47 41 36 34 44 43 41 45 37 42 44 45 42 46 46 48 49 48 49 51 49 46 46 50 51 56 63 66 69 67
50 36 32 31 34 41 43 44 45 44 51 51 50 52 42 40 50 48 49 62 49 39 37 35 42 47 45 45 49 50 52 51 55 55 54 50 47 51 57 56 63 65 65 67
58 46 49 43 44 48 53 51 52 54 57 54 52 44 46 57 52 64 74 54 38 40 47 45 51 46 46 47 53 60 62 58 59 60 60 57 54 53 74 79 81 83 83 85
57 55 56 56 55 56 60 56 54 52 49 51 50 52 57 69 86 84 54 50 46 48 50 54 52 50 48 54 65 70 66 70 73 77 74 72 72 75 72 72 85 87 87 86
60 61 60 62 62 50 49 52 59 61 67 75 86 88 91 86 72 57 48 46 48 50 56 53 51 51 52 52 58 66 69 82 71 73 77 77 75 82 82 80 85 83 84 76
59 62 61 50 48 53 62 74 80 80 88 98 96 93 81 71 65 57 50 55 58 59 54 51 49 46 44 58 60 59 59 60 70 86 88 85 86 88 89 86 82 79 73 74
61 61 65 68 70 72 80 92 96 100 99 85 64 70 66 57 50 55 58 59 73 63 55 88 86 63 60 56 55 56 57 74 79 74 81 88 83 87 87 88 85 75 75 74
78 91 85 90 92 96 98 90 76 73 68 69 76 72 57 68 80 70 62 67 100 100 100 99 89 52 58 59 62 58 60 60 73 70 75 76 80 86 89 92 89 79 84 96
69 69 72 76 83 91 90 82 81 79 73 69 90 100 100 100 84 85 93 100 100 100 90 80 80 64 62 60 62 65 74 81 85 90 93 96 83 80 91 93 85 84 84 82
66 67 67 66 69 73 71 64 63 69 92 95 98 100 99 100 82 78 90 99 98 98 66 72 79 84 66 66 79 81 96 96 95 92 93 98 99 89 87 97 97 98 88 87
60 60 59 59 60 67 73 70 95 67 66 85 100 100 99 100 100 100 100 99 87 72 67 68 72 74 75 72 87 83 97 98 88 89 98 94 100 100 99 93 97 100 100 100
55 58 68 69 70 92 99 97 99 83 80 95 96 95 94 99 98 98 98 77 67 89 75 79 76 70 62 70 75 96 100 100 99 98 97 100 99 98 100 100 100 100 100 100
56 72 97 93 82 78 81 75 78 90 88 88 90 91 90 83 87 89 93 89 71 86 81 82 83 87 83 94 89 99 99 98 96 99 98 99 100 100 100 100 100 100 100 100
69 72 83 93 94 79 76 75 84 85 88 86 86 85 81 74 70 79 80 66 78 80 77 91 92 91 97 100 100 100 100 95 93 95 96 94 95 98 99 98 100 100 100 100
78 80 80 73 72 66 62 52 56 60 76 73 75 81 77 83 85 64 67 76 80 86 94 97 97 96 95 100 100 100 96 90 89 88 85 83 88 88 88 90 92 98 98 99
79 64 61 65 56 54 52 50 50 50 55 55 61 60 69 63 79 79 87 87 80 83 94 87 97 94 99 98 96 93 92 88 89 88 88 88 88 89 88 88 88 89 90 94
57 56 54 55 55 51 52 51 58 58 61 70 68 75 76 74 73 76 81 80 81 82 87 91 92 93 93 92 93 92 91 84 87 86 87 87 87 86 87 87 87 88 89 94
57 61 54 54 50 52 59 62 72 74 73 82 81 78 74 78 81 80 81 85 86 87 88 90 90 91 91 92 92 91 90 89 87 86 87 88 87 89 88 89 88 88 89 91

GFSNGP_sfc_rhum_042.txt.gz
RH
18 17 19 24 22 20 21 24 41 34 22 15 14 16 14 18 19 19 20 26 28 34 40 41 44 44 42 44 45 47 42 37 40 41 42 42 46 50 53 55 52 54 56 57
39 27 24 27 22 19 18 19 17 18 20 14 12 16 17 17 15 16 20 24 31 35 36 40 40 40 42 42 46 42 41 40 37 38 39 46 49 54 56 55 53 56 58 60
64 35 35 59 35 25 20 18 20 28 22 16 16 15 20 21 19 21 23 25 31 34 37 39 39 42 43 41 42 39 39 36 36 38 43 48 45 44 48 54 60 64 63 63
79 72 77 25 15 14 18 15 13 14 16 14 22 21 20 20 22 26 28 27 31 35 38 39 39 38 43 35 35 42 39 34 33 40 43 44 44 46 53 58 62 64 65 67
97 60 34 24 17 20 22 22 18 19 18 16 19 23 29 22 27 29 29 30 32 35 38 40 38 38 34 36 37 36 36 35 32 38 40 43 45 53 57 59 63 63 59 67
75 91 87 37 22 19 20 47 24 24 27 26 22 56 43 30 30 28 27 29 33 36 38 38 36 33 36 33 39 37 36 38 39 40 42 44 49 55 59 59 57 59 65 70
79 95 65 26 22 23 52 57 33 31 31 34 40 47 44 37 32 29 30 32 38 38 37 33 32 36 45 50 50 41 41 39 36 38 42 46 53 57 59 60 67 74 76 80
86 100 91 22 24 44 46 38 35 34 37 44 43 41 38 35 36 34 35 35 33 36 44 48 47 51 51 51 38 40 48 51 47 49 47 41 56 60 62 65 73 76 97 92
60 65 36 25 29 28 34 37 40 42 37 38 40 37 36 41 40 37 31 30 30 46 54 57 56 54 55 45 42 50 57 62 57 51 46 45 56 62 66 65 80 85 91 94
48 26 25 24 27 38 40 45 39 38 40 48 52 48 42 42 38 45 55 58 64 70 75 74 56 42 42 50 55 58 59 56 55 55 56 58 56 58 63 85 89 90 93 87
39 32 30 39 47 52 47 47 48 45 46 46 46 46 42 44 56 70 74 73 68 66 56 42 44 51 51 49 51 52 56 53 60 65 70 66 57 60 77 77 86 90 90 90
73 50 55 60 49 46 48 48 47 47 50 50 50 62 76 87 82 76 72 63 56 53 53 54 48 43 44 46 48 55 60 65 83 88 86 76 68 71 70 77 78 77 78 85
54 49 54 51 49 51 57 56 62 63 69 82 87 87 81 81 74 70 60 58 56 54 49 47 50 52 49 50 60 73 77 79 84 85 86 84 83 83 85 80 79 84 83 82
48 52 58 49 63 60 64 69 69 66 67 70 69 66 71 74 69 65 60 51 43 43 46 46 46 47 47 45 58 73 76 80 77 77 81 82 86 85 85 87 89 84 82 84
50 49 53 56 55 58 59 62 68 72 72 72 66 65 56 50 47 46 45 42 45 48 45 41 52 55 47 64 62 70 72 72 76 80 88 91 91 90 88 90 94 90 84 90
56 56 56 60 62 61 61 64 71 77 68 65 66 60 45 44 44 46 46 69 82 81 73 86 88 76 70 58 55 57 58 72 79 80 88 88 89 90 97 97 89 88 87 87
70 72 70 69 63 60 60 65 67 66 60 63 78 84 73 80 72 77 74 84 97 98 97 95 88 64 77 68 65 65 69 70 77 81 86 93 94 96 98 98 98 93 86 89
60 59 60 63 67 70 67 64 66 71 78 87 98 99 98 99 95 87 91 90 94 92 90 85 87 84 79 73 75 79 81 80 80 82 90 95 98 95 95 87 86 90 96 98
56 58 60 57 56 55 60 68 78 87 93 97 98 97 95 95 84 86 87 91 88 80 81 77 81 71 66 66 75 73 79 83 86 82 86 92 96 92 91 96 91 89 94 93
56 52 55 66 70 76 85 88 86 80 81 86 94 92 88 82 88 93 84 86 75 79 66 67 68 65 64 66 74 72 75 80 81 90 99 96 96 98 95 89 89 91 93 96
56 63 78 84 87 94 97 92 89 74 74 93 91 92 91 86 86 85 76 69 69 69 70 73 68 74 80 80 79 81 83 84 85 87 94 99 99 98 95 93 94 96 98 98
70 90 97 91 80 76 70 68 78 90 89 91 92 91 88 70 77 76 81 77 71 78 78 72 88 82 78 86 84 91 95 95 95 95 97 99 98 96 94 93 93 92 94 95
81 84 87 83 82 68 64 62 91 87 88 86 90 86 79 72 68 76 79 68 74 82 74 82 87 81 83 89 88 91 90 94 94 95 96 97 96 96 95 93 93 91 92 91
77 74 70 66 69 60 57 48 47 56 82 77 84 89 76 80 82 70 74 79 81 88 85 90 89 84 83 89 89 90 92 93 92 94 94 95 96 95 95 94 92 92 91 92
65 61 58 67 54 52 48 44 46 52 58 58 64 62 68 68 84 81 85 84 81 84 86 84 87 86 87 88 89 90 91 94 93 94 94 94 94 95 94 93 91 91 92 90
60 58 54 51 50 48 52 52 62 63 64 75 75 81 81 79 79 79 84 84 82 83 86 88 88 90 88 87 89 90 90 91 92 91 94 94 94 94 94 92 88 89 89 88
59 64 53 54 49 51 62 64 74 76 76 88 84 82 77 83 84 81 83 86 86 87 86 87 87 88 91 87 88 87 88 88 88 92 92 93 94 94 94 91 89 88 87 91

GFSNGP_sfc_rhum_045.txt.gz
RH
33 33 33 32 35 33 30 41 55 46 39 31 28 25 25 28 30 26 31 42 44 48 62 69 68 70 55 56 50 50 49 49 54 55 51 50 54 55 58 57 51 55 60 65
57 40 36 42 34 33 31 29 32 33 34 27 26 24 25 23 22 26 30 32 45 59 60 62 63 58 53 49 52 51 52 51 48 51 50 56 55 56 56 57 57 59 61 64
75 48 44 58 41 33 34 32 33 41 36 32 31 30 32 31 33 31 34 36 41 49 56 61 55 53 50 50 53 53 46 44 48 51 50 52 48 48 49 54 59 64 64 65
83 74 62 43 26 20 26 28 28 26 28 32 31 37 37 40 40 39 39 39 42 47 51 56 59 51 51 45 43 45 44 46 50 50 47 47 49 50 56 61 65 64 68 68
76 82 56 37 30 35 35 41 34 37 35 33 31 42 52 41 39 40 40 43 49 54 54 51 45 42 39 41 41 45 45 44 48 54 53 52 53 64 64 62 67 68 64 70
90 84 74 56 31 30 30 66 44 42 46 51 46 79 71 51 46 47 47 47 48 42 40 42 45 42 48 46 46 50 51 49 49 53 54 59 62 64 64 63 63 66 68 75
97 94 80 44 32 37 51 65 51 46 50 52 64 67 56 49 50 43 43 49 53 56 59 58 55 55 57 54 51 49 53 56 57 58 57 58 62 61 59 64 69 80 83 83
97 98 85 33 35 51 64 54 54 52 56 57 57 53 53 52 44 42 51 55 57 63 64 59 54 54 53 53 50 54 59 60 62 63 63 57 62 62 66 70 79 82 94 94
78 84 62 44 60 60 61 61 60 62 65 65 67 64 56 59 66 69 69 73 71 74 69 56 50 50 59 53 52 62 64 72 74 70 62 56 65 70 76 77 88 85 94 96
56 52 44 64 60 59 62 67 60 58 59 61 63 55 63 74 78 80 82 84 77 73 68 65 53 47 57 61 64 70 72 73 72 71 70 70 71 74 81 94 96 95 95 95
56 66 70 64 65 64 61 61 59 61 64 68 73 76 80 82 80 72 67 65 62 62 60 56 62 62 60 61 64 62 65 69 72 77 80 84 81 80 89 86 91 92 93 93
89 76 74 73 64 60 66 67 63 75 84 81 79 84 80 78 73 71 73 66 65 65 68 66 64 60 57 56 58 66 73 76 91 92 92 89 87 87 80 80 81 82 83 89
75 64 67 71 73 73 79 79 79 83 82 84 82 82 81 86 78 79 74 70 67 66 64 60 59 60 60 64 68 72 78 83 91 91 91 90 91 90 86 84 82 82 84 86
60 64 78 73 84 76 75 74 74 75 77 79 84 86 87 85 80 77 72 63 56 57 60 61 64 67 68 67 72 77 82 87 88 89 90 88 88 87 88 91 87 86 88 83
68 66 71 68 72 72 69 74 82 87 87 88 83 83 75 69 66 66 74 74 73 77 78 75 77 77 72 83 81 83 84 90 88 88 88 88 88 90 96 97 94 92 91 95
68 66 69 73 70 74 76 81 89 90 78 71 74 80 75 75 78 82 84 91 97 97 96 98 99 92 89 82 80 81 86 88 86 86 90 89 92 94 97 98 97 98 95 96
80 84 77 73 70 71 76 73 69 71 77 89 99 98 97 96 93 92 93 94 95 94 96 98 86 69 78 63 63 68 77 82 86 84 84 86 91 91 96 98 98 94 97 92
66 68 66 75 77 78 77 83 88 93 98 96 94 93 93 90 95 96 96 94 94 93 78 80 77 75 71 69 78 82 85 85 81 80 78 82 83 84 94 98 98 96 94 94
65 67 68 67 68 74 82 90 93 93 98 94 93 97 96 95 91 94 88 92 90 84 80 77 78 76 83 82 76 75 79 84 84 84 86 86 92 87 93 98 98 98 97 96
71 77 81 82 86 89 94 91 88 86 89 90 94 96 90 92 95 90 91 89 81 86 79 72 83 77 71 70 85 89 94 94 89 92 94 87 89 90 88 98 98 98 96 96
80 85 89 90 93 90 89 89 89 84 87 96 88 93 95 95 88 93 88 89 87 78 74 82 82 76 69 83 84 89 90 92 92 93 95 95 95 96 96 96 96 97 97 97
86 90 92 87 79 81 85 82 85 92 90 95 95 94 93 83 91 88 93 90 87 93 83 90 86 87 79 92 84 90 90 91 90 91 92 93 94 95 96 96 96 95 95 96
93 90 88 86 80 73 76 86 92 85 87 95 93 94 91 89 93 97 93 82 84 91 83 95 98 94 93 90 92 91 90 93 92 91 93 94 94 95 94 94 94 94 94 94
89 82 75 72 80 74 64 61 74 72 87 88 93 93 89 96 97 93 96 96 97 98 97 93 98 96 97 97 95 93 92 92 93 92 91 89 93 93 93 94 94 94 94 92
75 75 74 77 68 69 64 66 73 72 75 81 81 75 83 95 96 97 97 97 97 97 97 96 95 98 99 99 99 98 99 97 93 95 92 92 93 93 93 93 94 94 94 90
73 68 65 65 70 72 74 79 88 88 92 97 96 96 94 98 96 96 96 96 95 97 97 98 98 97 99 99 99 100 98 95 92 96 94 92 92 91 92 92 93 93 94 94
75 78 70 71 70 77 84 90 94 96 98 97 96 95 93 97 98 96 97 98 97 98 98 99 98 99 94 99 99 99 100 98 97 96 100 95 92 93 93 92 92 92 91 90

GFSNGP_sfc_rhum_048.txt.gz
RH
39 37 38 39 38 38 39 45 54 44 45 34 34 28 31 29 32 44 56 57 58 60 64 69 74 77 73 71 70 71 69 65 69 68 59 60 61 62 64 62 58 58 60 66
52 45 38 43 38 38 37 36 39 39 43 39 37 34 35 32 34 37 42 51 53 65 73 71 76 74 71 73 74 68 62 66 67 57 58 65 66 67 64 60 58 59 63 65
65 54 50 66 46 37 37 39 36 44 40 37 43 38 40 47 43 44 48 53 66 71 72 75 77 74 77 70 72 62 57 59 61 60 60 62 57 55 53 54 61 65 70 69
83 72 74 50 37 35 40 39 35 34 38 46 46 52 51 46 46 46 48 51 57 63 71 70 65 63 62 56 55 59 55 55 54 58 59 58 56 58 68 66 67 71 73 72
76 80 60 43 27 33 41 51 45 46 46 41 52 56 57 55 59 59 66 58 55 56 54 54 53 50 48 52 50 53 57 58 61 63 60 59 80 76 72 69 69 71 70 74
92 77 73 56 37 34 40 68 48 52 60 56 54 79 74 64 54 58 56 56 59 57 55 54 52 49 53 57 57 63 62 59 59 63 82 83 72 71 70 68 66 69 72 78
97 84 70 52 35 38 46 53 53 55 57 60 72 72 67 56 59 57 59 59 59 59 63 60 55 52 56 60 66 63 68 72 83 80 69 67 68 69 71 71 74 81 83 86
96 91 68 50 42 46 56 64 60 60 62 74 76 63 56 57 59 62 67 65 61 62 58 54 50 51 56 61 56 62 75 75 69 74 70 67 78 80 78 83 86 85 92 90
75 78 64 67 62 64 64 68 72 77 74 74 66 69 73 80 80 77 77 75 59 52 56 57 56 58 63 63 63 67 70 76 76 75 75 74 79 82 84 84 92 90 92 93
67 75 78 76 72 71 69 70 68 68 68 65 73 77 82 82 83 82 72 69 66 63 62 63 60 61 65 66 68 71 72 73 76 78 78 80 81 85 91 95 96 94 95 95
93 82 73 73 73 68 70 75 78 77 75 77 80 83 81 80 71 67 64 62 60 62 66 67 68 68 66 66 67 68 70 73 78 82 84 86 88 92 91 89 89 90 92 92
89 75 79 80 77 72 75 80 78 81 85 80 78 82 78 80 70 67 71 67 66 71 74 74 62 62 62 64 66 70 74 78 86 90 91 90 90 84 84 84 83 85 84 89
84 72 79 84 82 78 85 85 82 83 82 86 83 80 78 82 80 80 78 74 67 68 69 71 73 73 73 78 81 82 85 84 86 86 87 91 88 90 88 78 85 83 84 82
71 74 86 84 93 82 82 82 78 78 80 82 86 87 88 88 80 76 79 77 75 78 84 88 90 92 90 90 92 91 91 90 92 93 93 92 92 94 93 93 92 89 86 86
77 75 80 78 76 79 77 79 86 92 92 88 84 79 73 80 90 95 93 91 90 94 97 92 91 87 77 79 74 73 75 84 86 90 92 93 93 92 90 91 93 92 84 96
79 78 78 81 81 82 85 86 91 88 82 82 87 90 87 89 89 86 89 95 94 95 88 91 84 74 78 72 77 81 84 87 88 88 87 86 83 84 82 82 87 91 94 97
87 91 87 86 82 86 87 82 79 80 92 95 96 91 83 84 85 84 86 92 96 88 86 82 81 74 82 84 70 73 77 76 80 81 85 85 86 87 86 87 89 85 88 98
73 73 71 73 80 84 85 87 93 95 94 95 90 91 94 96 94 93 96 89 91 93 82 76 84 77 68 65 73 82 88 89 89 91 87 88 92 92 93 93 94 89 92 97
71 73 75 73 76 82 86 93 97 95 92 94 92 94 92 95 81 81 87 92 93 86 79 84 82 70 65 72 86 91 90 91 90 86 89 88 91 90 93 93 94 97 97 97
79 80 83 86 85 87 88 85 87 87 78 80 89 90 88 93 95 93 92 93 80 75 73 80 70 66 65 75 89 84 92 94 90 90 92 92 92 92 94 91 93 95 95 95
85 87 90 91 91 90 87 86 84 74 70 89 89 93 94 95 92 95 92 91 78 82 77 83 80 76 68 85 82 91 94 95 93 94 95 94 92 92 92 92 92 93 94 95
89 90 90 85 78 80 79 73 80 90 89 92 93 94 93 87 94 97 97 88 79 96 93 88 84 93 84 96 88 95 93 92 94 94 94 93 94 93 92 92 92 93 94 94
88 84 80 81 81 78 77 75 88 89 90 92 92 93 92 93 94 97 98 82 89 98 94 99 99 100 98 99 100 100 100 98 96 97 96 94 94 94 93 93 93 93 93 93
92 81 76 68 73 78 75 69 67 77 91 90 92 94 94 97 98 96 96 100 100 100 100 99 100 100 100 100 100 100 100 100 100 99 98 99 96 95 93 93 92 92 92 92
75 74 72 73 65 70 71 71 74 76 83 73 74 74 90 91 95 98 98 98 100 99 99 100 100 100 100 100 100 100 100 100 100 99 100 99 96 96 96 94 93 93 92 92
73 72 72 69 72 75 80 80 87 92 92 97 94 98 98 98 96 95 97 97 98 100 99 100 100 100 100 100 100 100 100 98 100 100 100 100 98 96 97 96 94 93 93 92
71 74 75 79 78 85 86 85 93 98 98 97 96 97 98 99 99 98 100 100 100 100 100 100 100 100 100 100 99 100 100 100 100 100 100 100 100 98 98 96 95 95 93 92